This is the latest recevied weather packets stored in our database for station/object EA1FWM-12. If no packets are shown the sender has not sent any weather packets the latest 10 day(s).
| Time | Temp. | Humidity | Pressure | Rain* | Wind** | Luminosity | Snow |
|---|---|---|---|---|---|---|---|
| 1788091270 | 24.44° C | 61% | 1024.7 hPa | - | - | - | - |
| 1788090370 | 23.33° C | 60% | 1024.8 hPa | - | - | - | - |
| 1788089471 | 23.33° C | 62% | 1024.9 hPa | - | - | - | - |
| 1788082275 | 17.78° C | 81% | 1024.5 hPa | - | - | - | - |
| 1788081374 | 17.78° C | 80% | 1024.4 hPa | - | - | - | - |
| 1788080474 | 17.22° C | 83% | 1024.3 hPa | - | - | - | - |
| 1788075075 | 18.33° C | 86% | 1023.4 hPa | - | - | - | - |
| 1788072376 | 15° C | 88% | 1023.1 hPa | - | - | - | - |
| 1788071477 | 14.44° C | 88% | 1023.2 hPa | - | - | - | - |
| 1788070578 | 14.44° C | 88% | 1022.9 hPa | - | - | - | - |
| 1788068779 | 14.44° C | 88% | 1022.7 hPa | - | - | - | - |
| 1788065180 | 15° C | 88% | 1022.7 hPa | - | - | - | - |
| 1788064287 | 15° C | 88% | 1022.8 hPa | - | - | - | - |
| 1788063380 | 15° C | 88% | 1022.7 hPa | - | - | - | - |
| 1788062488 | 15° C | 88% | 1022.8 hPa | - | - | - | - |
| 1788061581 | 15° C | 88% | 1022.8 hPa | - | - | - | - |
| 1788060680 | 15° C | 88% | 1022.9 hPa | - | - | - | - |
| 1788059781 | 15° C | 88% | 1023 hPa | - | - | - | - |
| 1788058881 | 15° C | 88% | 1023.2 hPa | - | - | - | - |
| 1788057982 | 15.56° C | 88% | 1023.3 hPa | - | - | - | - |
| 1788057081 | 15.56° C | 88% | 1023.2 hPa | - | - | - | - |
| 1788056182 | 15.56° C | 88% | 1023.3 hPa | - | - | - | - |
| 1788055282 | 15.56° C | 88% | 1023.3 hPa | - | - | - | - |
| 1788054382 | 15.56° C | 88% | 1023.4 hPa | - | - | - | - |
| 1788053482 | 15.56° C | 87% | 1023.5 hPa | - | - | - | - |
* Rain since midnight (hover to see other rain measurements)
** Current wind speed in m/s (hover to see current wind gust speed)